User: anonymous   Login
Location: Oshawa
(43.9000°N, 78.8670°W)
Time: 14:14:45
(UTC-04:00)
Language:

Cosmos 839 Rocket - Orbit

View from above orbital plane
View from above orbital plane
View from above satellite
View from above satellite

Ground track
Ground track

The orbit data is extracted from the following two-line orbital elements,

1  9013U 76067B   17080.63471096 -.00000076 +00000-0 -74431-4 0  9999
2  9013 065.8668 176.3774 0705866 107.6644 349.7997 12.35326669835590
Epoch (UTC): 21 March 2017 15:13:59
Eccentricity: 0.0705866
inclination: 65.8668°
perigee height: 968 km
apogee height: 2084 km
right ascension of ascending node: 176.3774°
argument of perigee: 107.6644°
revolutions per day: 12.35326669
mean anomaly at epoch: 349.7997°
orbit number at epoch: 83559

The dashed part of the orbit path shows where the satellite is in the earth's shadow,  

DLR